Printer-friendly version

IAU Minor Planet Center

Minor Planet Center

MPEC 2005-E36 : 2005 EO33

The following Minor Planet Electronic Circular may be linked-to from your own Web pages, but must not otherwise be redistributed electronically.


Read MPEC 2005-E35 Read MPEC 2005-E37


M.P.E.C. 2005-E36                                Issued 2005 Mar. 8, 06:45 UT

     The Minor Planet Electronic Circulars contain information on unusual
         minor planets and routine data on comets.  They are published
   on behalf of Commission 20 of the International Astronomical Union by the
          Minor Planet Center, Smithsonian Astrophysical Observatory,
                          Cambridge, MA 02138, U.S.A.

                  Supported in part by the Brinson Foundation
             Prepared using the Tamkin Foundation Computer Network

                              MPC@CFA.HARVARD.EDU
          URL http://cfa-www.harvard.edu/iau/mpc.html  ISSN 1523-6714

                                   2005 EO33

Observations:
     K05E33O* C2005 03 07.20035 08 55 56.21 -07 12 44.9          19.0   EE036704
     K05E33O  C2005 03 07.21172 08 55 59.47 -07 12 33.6          19.4   EE036704
     K05E33O  C2005 03 07.22309 08 56 02.84 -07 12 23.2          19.2   EE036704
     K05E33O  C2005 03 07.23446 08 56 06.06 -07 12 10.3          19.3   EE036704
     K05E33O  C2005 03 07.24585 08 56 09.36 -07 11 59.2          18.9   EE036704
     K05E33O  C2005 03 08.10782 09 00 26.26 -06 57 52.1          19.1 V EE036H36
     K05E33O  C2005 03 08.11755 09 00 28.80 -06 57 43.4          19.2 V EE036H36
     K05E33O  C2005 03 08.16180 09 00 41.39 -06 56 56.3          19.3 R EE036448
     K05E33O  C2005 03 08.16657 09 00 42.56 -06 56 51.6          19.3 R EE036448
     K05E33O  C2005 03 08.17195 09 00 44.04 -06 56 46.3          19.4 R EE036448
     K05E33O  C2005 03 08.18566 09 00 47.88 -06 56 33.1          18.7 R EE036854
     K05E33O  C2005 03 08.19137 09 00 49.50 -06 56 28.2          18.6 R EE036854
     K05E33O  C2005 03 08.19712 09 00 51.06 -06 56 22.5          18.5 R EE036854

Observer details:
448 Desert Moon Observatory.  Observer B. L. Stevens.  0.3-m
    Schmidt-Cassegrain + CCD.
704 Lincoln Laboratory ETS, New Mexico.  Observers M. Blythe, F. Shelly,
    M. Bezpalko, R. Huber, L. Manguso, D. Torres, R. Krack.  Measurers
    J. Stuart, R. Sayer, J. Evans, J. Kommers.  1.0-m f/2.15 reflector + CCD.
854 Sabino Canyon Observatory, Tucson.  Observer J. E. McGaha.  0.36-m f/10.0
    Schmidt-Cassegrain + CCD.
H36 Sandlot Observatory, Scranton.  Observer G. Hug.  0.3-m f/6
    Schmidt-Cassegrain + CCD.

Orbital elements:
2005 EO33                                                            PHA 0.042
Epoch 2005 Feb. 19.0 TT = JDT 2453420.5                 MPC
M  17.49324              (2000.0)            P               Q
n   0.40559948     Peri.  154.46337     +0.04828300     -0.99617495
a   1.8074701      Node   292.69795     +0.90234282     +0.07476905
e   0.5367757      Incl.    4.52788     +0.42830619     -0.04522233
P   2.43           H   21.3           G   0.15
From 13 observations 2005 Mar. 7-8.

Ephemeris:
2005 EO33                a,e,i = 1.81, 0.54, 5                   q = 0.8373
Date    TT    R. A. (2000) Decl.     Delta      r     Elong.  Phase     V
2005 03 01    08 14.05   -09 16.4    0.127    1.089   138.1    37.4    18.5
2005 03 11    09 12.89   -06 14.3    0.204    1.167   145.6    28.8    19.4
2005 03 21    09 42.95   -04 26.3    0.293    1.248   145.1    27.1    20.3
2005 03 31    10 03.33   -03 21.0    0.393    1.329   141.4    27.9    21.1
2005 04 10    10 19.94   -02 44.9    0.504    1.410   136.3    29.4    21.8

Kyle E. Smalley              (C) Copyright 2005 MPC           M.P.E.C. 2005-E36

Read MPEC 2005-E35 Read MPEC 2005-E37


Our Web policy. Index to the CBAT/MPC/ICQ pages.


Valid HTML 4.01!